Location: Seven Kings
(51.5667°N, 0.1000°E)
Time: 11:06:19
(UTC+00:00)

NOSS 3-3 (C) - Pass Details

Date: 29 October 2020
Orbit: 825 x 1387 km, 63.4° (Epoch: 22 November)

Event Time Altitude Azimuth Distance (km) Brightness Sun altitude
Rises 18:04:10 0° 195° (SSW) 3,416 7.1 -14.0°
Reaches altitude 10° 18:06:39 10° 188° (S) 2,528 6.3 -14.4°
Maximum altitude 18:12:04 41° 120° (ESE) 1,339 4.3 -15.2°
Enters shadow 18:16:14 19° 60° (ENE) 2,195 5.3 -15.8°
